Montpelier, VT

1:22 AM EDT on October 22, 2017 (GMT -0400)
Knapp State

Weather History for KMPV - January, 2013

Change the Weather History Date:

Saturday, January 5, 2013

  Actual Average Record
Temperature  
Mean Temperature 18 °F 17 °F  
Max Temperature 31 °F 27 °F 59 °F (1950)
Min Temperature 5 °F 8 °F -17 °F (1996)
Degree Days  
Heating Degree Days 47 48  
Month to date heating degree days 278 238  
Since 1 July heating degree days 3241 3386  
Cooling Degree Days 0 0  
Month to date cooling degree days 0  
Year to date cooling degree days 0  
Moisture  
Dew Point 16 °F    
Average Humidity 77    
Maximum Humidity 91    
Minimum Humidity 62    
Precipitation  
Precipitation 0.03 in 0.08 in 0.41 in (1993)
Month to date precipitation 0.04 0.37  
Year to date precipitation 0.04 0.37  
Sea Level Pressure  
Sea Level Pressure 30.08 in    
Wind  
Wind Speed 9 mph (NW)    
Max Wind Speed 30 mph    
Max Gust Speed 44 mph    
Visibility 6 miles    
Events Fog , Snow    
T = Trace of Precipitation, MM = Missing Value Source: NWS Daily Summary

Daily Weather History Graph

Daily Weather History Graph

Search for Another Location

Airport or City:

Trip Planner

Search our weather history database for the weather conditions in past years. The results will help you decide how hot, cold, wet, or windy it might be!

Date:

Astronomy

Jan. 05, 2013 Rise Set
Actual Time 7:25 AM EST 4:26 PM EST
Civil Twilight 6:52 AM EST 4:59 PM EST
Nautical Twilight 6:16 AM EST 5:35 PM EST
Astronomical Twilight 5:41 AM EST 6:10 PM EST
Moon 12:21 AM EST (1/5) 11:21 AM EST (1/5)
Length of Visible Light 10h 06m
Length of Day
9h 00m
Last Quarter, 44% of the Moon is Illuminated
Jan 5
Last Quarter
Jan 11
New
Jan 18
First Quarter
Jan 26
Full
Feb 3
Last Quarter

Hourly Weather History & Observations

Time (EST) Temp. Windchill Dew Point Humidity Pressure Visibility Wind Dir Wind Speed Gust Speed Precip Events Conditions
12:51 AM 30.0 °F 19.5 °F 19.0 °F 64% 29.81 in 8.0 mi West 13.8 mph 27.6 mph 0.00 in   Overcast
1:51 AM 30.0 °F 20.0 °F 19.9 °F 66% 29.82 in 7.0 mi West 12.7 mph 20.7 mph 0.00 in Snow Light Snow
2:51 AM 30.0 °F 20.0 °F 21.9 °F 72% 29.86 in 5.0 mi West 12.7 mph 28.8 mph 0.00 in Snow Light Snow
3:51 AM 30.2 °F 17.8 °F 21.2 °F 69% 29.84 in 4.0 mi WNW 19.6 mph 38.0 mph N/A Snow Light Snow
4:51 AM 30.2 °F 18.5 °F 21.2 °F 69% 29.86 in 6.0 mi West 17.3 mph 33.4 mph N/A   Overcast
5:04 AM 30.2 °F 15.9 °F 21.2 °F 69% 29.88 in 1.8 mi WNW 26.5 mph 35.7 mph 0.01 in Snow Light Snow
5:07 AM 28.4 °F 15.1 °F 24.8 °F 86% 29.88 in 1.0 mi NW 20.7 mph 35.7 mph N/A Snow Light Snow
5:11 AM 28.4 °F 15.8 °F 24.8 °F 86% 29.89 in 0.5 mi NW 18.4 mph 35.7 mph 0.01 in Fog , Snow Snow
5:24 AM 26.6 °F 12.7 °F 24.8 °F 93% 29.90 in 1.0 mi NW 20.7 mph 31.1 mph 0.02 in Snow Light Snow
5:36 AM 26.6 °F 11.7 °F 21.2 °F 80% 29.92 in 1.0 mi NW 24.2 mph 39.1 mph 0.02 in Snow Light Snow
5:51 AM 27.0 °F 11.0 °F 21.0 °F 78% 29.98 in 1.0 mi WNW 28.8 mph 43.7 mph 0.03 in Snow Light Snow
5:58 AM 26.6 °F 11.7 °F 19.4 °F 74% 29.94 in 1.5 mi WNW 24.2 mph 43.7 mph 0.00 in   Mostly Cloudy
6:07 AM 26.6 °F 11.4 °F 19.4 °F 74% 29.94 in 2.5 mi WNW 25.3 mph 38.0 mph 0.00 in   Scattered Clouds
6:20 AM 26.6 °F 12.4 °F 19.4 °F 74% 29.95 in 5.0 mi WNW 21.9 mph 29.9 mph 0.00 in   Mostly Cloudy
6:51 AM 26.6 °F 13.8 °F 17.6 °F 69% 29.98 in 9.0 mi WNW 17.3 mph 32.2 mph N/A   Mostly Cloudy
7:51 AM 25.0 °F 12.2 °F 15.1 °F 66% 30.10 in 9.0 mi NW 16.1 mph 36.8 mph 0.00 in   Clear
8:39 AM 24.8 °F 16.9 °F 15.8 °F 69% 30.09 in 9.0 mi NNW 6.9 mph - N/A   Overcast
8:51 AM 24.8 °F 13.4 °F 15.8 °F 69% 30.10 in 9.0 mi NNW 12.7 mph 20.7 mph N/A Snow Light Snow
9:19 AM 23.0 °F 13.9 °F 15.8 °F 74% 30.12 in 5.0 mi NNW 8.1 mph 24.2 mph 0.00 in Snow Light Snow
9:51 AM 23.0 °F 13.1 °F 17.6 °F 80% 30.14 in 6.0 mi NW 9.2 mph 17.3 mph N/A Snow Light Snow
10:28 AM 23.0 °F 10.6 °F 17.6 °F 80% 30.16 in 2.5 mi WNW 13.8 mph 19.6 mph 0.00 in Snow Light Snow
10:34 AM 21.2 °F 9.5 °F 17.6 °F 86% 30.17 in 3.0 mi NW 11.5 mph 24.2 mph 0.00 in Snow Light Snow
10:51 AM 21.9 °F 11.7 °F 16.0 °F 78% 30.24 in 6.0 mi NNW 9.2 mph 20.7 mph 0.00 in Snow Light Snow
11:51 AM 21.0 °F 12.4 °F 14.0 °F 74% 30.25 in 8.0 mi NNW 6.9 mph - 0.00 in Snow Light Snow
12:04 PM 21.2 °F 11.7 °F 12.2 °F 68% 30.19 in 10.0 mi NW 8.1 mph 16.1 mph N/A   Overcast
12:51 PM 21.0 °F 8.6 °F 12.0 °F 68% 30.25 in 10.0 mi NNW 12.7 mph - 0.00 in   Overcast
1:51 PM 21.9 °F 11.0 °F 12.0 °F 66% 30.25 in 10.0 mi North 10.4 mph - N/A   Clear
2:51 PM 21.0 °F 10.6 °F 10.9 °F 65% 30.25 in 10.0 mi North 9.2 mph - N/A   Clear
3:51 PM 19.9 °F 12.1 °F 10.9 °F 68% 30.25 in 10.0 mi NW 5.8 mph - N/A   Clear
4:51 PM 19.0 °F 13.9 °F 10.0 °F 68% 30.25 in 10.0 mi North 3.5 mph - N/A   Clear
5:51 PM 14.0 °F 8.2 °F 8.6 °F 79% 30.20 in 10.0 mi South 3.5 mph - N/A   Clear
6:51 PM 10.0 °F 1.8 °F 7.0 °F 87% 30.28 in 10.0 mi South 4.6 mph - N/A   Clear
7:51 PM 8.1 °F - 6.1 °F 92% 30.27 in 10.0 mi Calm Calm - N/A   Clear
8:51 PM 9.0 °F - 7.0 °F 92% 30.28 in 10.0 mi Calm Calm - N/A   Clear
9:51 PM 6.1 °F - 3.9 °F 91% 30.27 in 9.0 mi Calm Calm - N/A   Clear
10:51 PM 8.1 °F - 6.1 °F 92% 30.26 in 9.0 mi Calm Calm - N/A   Clear
11:51 PM 8.1 °F - 6.1 °F 92% 30.25 in 9.0 mi Calm Calm - N/A   Clear